STARLINK-34283, 64214

Orbit data source: Space-Track

STARLINK-34283, 64214 is a payload satellite owned by SpaceX/Seattle (US) in LEO that was launched on Sat, 31 May 2025 UTC via an FALCON 9 launch vehicle from the Air Force Western Test Range (AFWTR). Payload-class satellites include a variety of spacecraft equipped with specific instruments for various scientific and technological missions. These include communications satellites like Starlink; space stations such as the ISS; scientific satellites like the Hubble; Earth observation satellites from companies like Planet Labs, Umbra, and HawkEye 360; GPS; miniature CubeSats for education and research; and military/defense satellites.

Loading next visibility...
Identifier
64214, 2025-117M
Orbit
LEO
Last TLE update
9 hours ago
Origin
Manufacturer
SpaceX/Seattle
Mission
Operational Commercial Communications
Bus & Motor
STARLINK V2MO, Unknown motor
Mass
575 kg wet, ~530 kg dry
Launch date (UTC)
2025-05-31 (2 months ago)
Launch vehicle
FALCON 9
Launch site
Air Force Western Test Range (AFWTR)
Object type
Payload
Rocket body
Debris
Shape & HBR
Box + 1 Pan, 14.5 m
Radar Cross Section
41.120 m², Large (>1 m²)

Expand to show TLE details & history

TLE from 9 hours ago
0 STARLINK-34283
1 64214U 25117M   25211.37312268  .00046687  00000-0  11700-2 0  9998
2 64214  53.1598 353.9804 0002098  82.2755 277.8487 15.39619502  9441
Epoch: 2025-07-30T08:57Z
TLE epoch observation values (Epoch: 2025-07-30T08:57:17.799Z)
Latitude
-0.00011°
Longitude
-88.59713°
Altitude
447.942 km
Speed
7.645 km/s
True Right ascension
23h 35m 55s
True Declination
0° 00' 00"
Sunlit
Object was in full shadow at epoch
Visualization orbit readout
Latitude
-42.81097°
Longitude
133.3156°
Altitude
462.746 km
Speed
7.634 km/s
Apparent Right ascension
16h 49m 45s
Apparent Declination
-47° 41' 35"
Sunlit
Object is in daylight
Visualization observer readout
Local Sidereal Time
07:20:22
Azimuth
118.717° SE
Elevation
-62.04°
Doppler factor
1
Orbital elements
Apogee altitude
448.923 km
Perigee altitude
446.059 km
Semi-major axis
6,825.628 km
Eccentricity
0.00021
Inclination
53.1598°
RAAN
353.9804°
Arg. of periapsis
82.2755°
True anomaly
277.82488°
Mean anomaly
277.8487°
Eccentric anomaly
277.83679°
Mean motion
3.84883 °/min
Orbital period
93.53 mins
BSTAR
0.00117
Loading maneuver chart data...
Loading SW <> Apogee altitude chart data...
Loading historical data...
Loading historical data...
Loading historical data...
Loading historical data...
Loading historical data...
Loading historical data...
Loading historical data...
|